CW3642 Weather Reports


Display with metric or nautical units.
time (UTC)temp
F
wind
direction
speed
MPH
gust
MPH
rain 1hr
in
rain 24hr
in
rain mn
in
humidity
%
barometer
mb
20260902232748 72 294 0.0 0.0 0.00 0.09 0.09 74 1012.4
20260902232249 72 294 0.0 0.0 0.00 0.09 0.09 75 1012.4
20260902231749 72 294 0.0 0.0 0.00 0.09 0.09 76 1012.4
20260902231248 72 294 0.0 0.0 0.00 0.09 0.09 76 1012.3
20260902230748 72 294 0.0 0.0 0.00 0.09 0.09 75 1012.3
20260902230248 73 294 0.0 0.0 0.00 0.09 0.09 73 1012.4
20260902225748 73 250 0.0 0.0 0.00 0.09 0.09 73 1012.5
20260902225249 73 300 0.0 0.0 0.00 0.09 0.09 74 1012.4
20260902224748 73 327 0.0 0.0 0.00 0.09 0.09 73 1012.4
20260902224248 74 232 0.0 0.0 0.00 0.09 0.09 76 1012.4
20260902223748 74 240 0.0 0.0 0.00 0.09 0.09 73 1012.4
20260902223249 74 321 0.0 0.0 0.00 0.09 0.09 74 1012.4
20260902222748 74 281 0.0 0.0 0.00 0.09 0.09 72 1012.4
20260902222248 74 13 0.0 0.0 0.00 0.09 0.09 73 1012.3
20260902221749 75 342 0.0 0.0 0.00 0.09 0.09 72 1012.3
20260902221248 75 351 0.0 0.0 0.00 0.09 0.09 71 1012.4
20260902215741 77 275 0.0 0.0 0.00 0.09 0.09 68 1012.5
20260902215241 77 273 0.0 0.0 0.00 0.09 0.09 67 1012.5
20260902214741 77 291 0.0 0.0 0.00 0.09 0.09 67 1012.5
20260902213741 78 302 0.0 0.0 0.00 0.09 0.09 65 1012.4
20260902213241 78 280 0.0 0.0 0.00 0.09 0.09 65 1012.5
20260902212741 78 340 0.0 0.0 0.00 0.09 0.09 65 1012.6
20260902212241 78 336 0.0 0.0 0.00 0.09 0.09 63 1012.6
20260902211741 78 235 0.0 0.0 0.00 0.09 0.09 63 1012.6
20260902211241 78 219 0.0 0.0 0.00 0.09 0.09 63 1012.5
20260902210241 78 291 0.0 0.0 0.00 0.09 0.09 64 1012.6
20260902205741 78 304 0.0 0.0 0.00 0.09 0.09 66 1012.5
20260902205241 78 285 0.0 0.0 0.00 0.09 0.09 62 1012.5
20260902204741 78 283 0.0 0.0 0.00 0.09 0.09 62 1012.5
20260902204241 78 306 0.0 0.0 0.00 0.09 0.09 65 1012.6
20260902203741 78 279 0.0 0.0 0.00 0.09 0.09 65 1012.6
20260902202741 78 321 0.0 0.0 0.00 0.09 0.09 64 1012.8
20260902202241 78 265 0.0 0.0 0.00 0.09 0.09 65 1012.9
20260902200741 78 340 0.0 0.0 0.00 0.09 0.09 66 1012.9
20260902200241 78 300 0.0 0.0 0.00 0.09 0.09 67 1012.9
20260902195741 78 286 0.0 0.0 0.00 0.09 0.09 66 1012.9
20260902194741 78 242 0.0 0.0 0.00 0.09 0.09 68 1013.0
20260902194241 78 236 0.0 0.0 0.00 0.09 0.09 66 1013.1
20260902193741 78 295 0.0 0.0 0.00 0.09 0.09 69 1013.2
20260902193241 79 265 0.0 0.0 0.00 0.09 0.09 66 1013.3
20260902192741 79 277 0.0 0.0 0.00 0.09 0.09 63 1013.3
20260902192241 79 205 0.0 0.0 0.00 0.09 0.09 66 1013.3
20260902191741 79 221 0.0 0.0 0.00 0.09 0.09 66 1013.4
20260902191241 78 207 0.0 0.0 0.00 0.09 0.09 65 1013.2
20260902190741 78 269 0.0 0.0 0.00 0.09 0.09 67 1013.3
20260902190241 78 246 0.0 0.0 0.00 0.09 0.09 67 1013.3
20260902185741 78 316 0.0 0.0 0.00 0.09 0.09 68 1013.3
20260902184741 78 279 0.0 0.0 0.00 0.09 0.09 65 1013.6
20260902184241 78 275 0.0 0.0 0.00 0.09 0.09 67 1013.5
20260902183741 78 327 0.0 0.0 0.00 0.09 0.09 71 1013.5
20260902182741 78 296 0.0 0.0 0.00 0.09 0.09 72 1013.3
20260902182241 78 281 0.0 0.0 0.00 0.09 0.09 71 1013.4
20260902181741 77 242 0.0 0.0 0.00 0.09 0.09 74 1013.4
20260902180741 76 231 0.0 0.0 0.00 0.09 0.09 75 1013.4
20260902175803 76 273 0.0 0.0 0.00 0.09 0.09 73 1013.4
20260902175307 76 209 0.0 0.0 0.00 0.09 0.09 76 1013.4
20260902174733 75 241 0.0 0.0 0.00 0.09 0.09 77 1013.2
20260902174303 75 297 0.0 0.0 0.00 0.09 0.09 80 1013.4
20260902173733 75 281 0.0 0.0 0.00 0.09 0.09 78 1013.3
20260902171753 72 253 0.0 0.0 0.00 0.09 0.09 87 1013.2
20260902171253 72 236 0.0 0.0 0.00 0.09 0.09 86 1013.1
20260902170253 71 278 0.0 0.0 0.00 0.09 0.09 87 1012.9
20260902165753 71 161 0.0 0.0 0.00 0.09 0.09 88 1013.0
20260902165253 71 252 0.0 0.0 0.00 0.09 0.09 87 1013.0
20260902164753 71 220 0.0 0.0 0.00 0.09 0.09 88 1012.7
20260902164253 70 200 0.0 0.0 0.00 0.09 0.09 89 1012.7
20260902163753 70 222 0.0 0.0 0.00 0.09 0.09 90 1012.7
20260902163253 70 229 0.0 0.0 0.00 0.09 0.09 91 1012.6
20260902162753 70 229 0.0 0.0 0.00 0.09 0.09 91 1012.9
20260902162253 70 232 0.0 0.0 0.00 0.09 0.09 90 1013.2
20260902161753 70 215 0.0 0.0 0.00 0.09 0.09 91 1013.3
20260902161253 70 213 0.0 0.0 0.00 0.09 0.09 91 1013.3
20260902160753 69 214 0.0 0.0 0.00 0.09 0.09 91 1013.2
20260902155253 69 238 0.0 0.0 0.00 0.09 0.09 93 1013.0
20260902154753 69 254 0.0 0.0 0.00 0.09 0.09 94 1013.1
20260902154253 69 254 0.0 0.0 0.00 0.09 0.09 94 1012.9
20260902153753 69 327 0.0 0.0 0.00 0.09 0.09 94 1012.7
20260902153253 69 288 0.0 0.0 0.00 0.09 0.09 94 1012.9
20260902152753 69 246 0.0 0.0 0.00 0.09 0.09 94 1013.0
20260902152253 69 247 0.0 0.0 0.00 0.09 0.09 94 1013.1
20260902150253 68 286 0.0 0.0 0.00 0.09 0.09 94 1013.5
20260902145753 68 308 0.0 0.0 0.00 0.09 0.09 94 1013.7
20260902145253 68 252 0.0 0.0 0.00 0.09 0.09 94 1013.6
20260902144753 68 301 0.0 0.0 0.00 0.09 0.09 94 1013.7
20260902144253 68 309 0.0 0.0 0.00 0.09 0.09 94 1013.7
20260902143753 68 221 0.0 0.0 0.00 0.09 0.09 94 1013.6
20260902142753 68 268 0.0 0.0 0.00 0.09 0.09 94 1013.0
20260902142253 68 237 0.0 0.0 0.01 0.09 0.09 94 1012.7
20260902141753 68 247 0.0 0.0 0.01 0.09 0.09 93 1012.4
20260902141253 67 248 0.0 0.0 0.01 0.09 0.09 93 1012.1
20260902140753 66 190 0.0 0.0 0.01 0.09 0.09 93 1011.7
20260902135758 66 219 0.0 0.0 0.02 0.09 0.09 94 1011.7
20260902135258 65 233 0.0 0.0 0.03 0.09 0.09 94 1011.6
20260902134758 65 205 0.0 0.0 0.04 0.09 0.09 94 1011.6
20260902133758 65 189 0.0 0.0 0.08 0.09 0.09 94 1010.5
20260902133258 65 123 0.0 0.0 0.08 0.09 0.09 94 1010.5
20260902132758 65 163 0.0 0.0 0.09 0.09 0.09 94 1010.7
20260902132258 65 65 0.0 0.0 0.08 0.08 0.08 94 1011.7
20260902131758 66 82 0.0 0.0 0.08 0.08 0.08 94 1012.5
20260902131258 66 12 0.0 0.0 0.08 0.08 0.08 94 1012.5
20260902130758 66 344 0.0 0.0 0.08 0.08 0.08 94 1013.0
20260902130258 66 238 0.0 0.0 0.08 0.08 0.08 94 1013.6
20260902125758 66 225 0.0 0.0 0.07 0.07 0.07 94 1013.6
20260902125258 66 277 0.0 0.0 0.06 0.06 0.06 94 1014.7
20260902124758 66 313 0.0 0.0 0.05 0.05 0.05 94 1014.9
20260902124258 66 211 0.0 0.0 0.04 0.04 0.04 94 1015.2
20260902123758 66 229 0.0 0.0 0.01 0.01 0.01 94 1015.8
20260902123258 66 232 0.0 0.0 0.01 0.01 0.01 94 1015.7
20260902122757 67 233 0.0 0.0 0.00 0.00 0.00 94 1015.5
20260902122258 67 271 0.0 0.0 0.00 0.00 0.00 93 1015.5
20260902121758 67 221 0.0 0.0 0.00 0.00 0.00 93 1015.5
20260902121258 67 243 0.0 0.0 0.00 0.00 0.00 93 1015.2
20260902120758 67 240 0.0 0.0 0.00 0.00 0.00 93 1014.8
20260902115757 66 211 0.0 0.0 0.00 0.00 0.00 93 1014.2
20260902115258 65 221 0.0 0.0 0.00 0.00 0.00 94 1014.1
20260902114757 65 236 0.0 0.0 0.00 0.00 0.00 94 1013.6
20260902114257 65 246 0.0 0.0 0.00 0.00 0.00 94 1013.2
20260902113757 65 246 0.0 0.0 0.00 0.00 0.00 94 1013.1
20260902113258 65 246 0.0 0.0 0.00 0.00 0.00 94 1012.8
20260902112757 65 246 0.0 0.0 0.00 0.00 0.00 94 1012.7
20260902112258 65 246 0.0 0.0 0.00 0.00 0.00 94 1012.6
20260902111757 65 246 0.0 0.0 0.00 0.00 0.00 94 1012.7
20260902111257 65 246 0.0 0.0 0.00 0.00 0.00 94 1012.7
20260902110758 65 246 0.0 0.0 0.00 0.00 0.00 94 1012.5
20260902110257 65 246 0.0 0.0 0.00 0.00 0.00 94 1012.4
20260902105758 65 246 0.0 0.0 0.00 0.00 0.00 94 1012.2
20260902104757 65 246 0.0 0.0 0.00 0.00 0.00 94 1011.8
20260902104257 65 246 0.0 0.0 0.00 0.00 0.00 94 1011.8
20260902103758 65 246 0.0 0.0 0.00 0.00 0.00 94 1011.8
20260902103258 65 246 0.0 0.0 0.00 0.00 0.00 94 1011.8
20260902102757 65 246 0.0 0.0 0.00 0.00 0.00 94 1011.8
20260902102257 65 246 0.0 0.0 0.00 0.00 0.00 94 1011.8
20260902101757 65 246 0.0 0.0 0.00 0.00 0.00 94 1012.0
20260902101257 65 246 0.0 0.0 0.00 0.00 0.00 94 1011.9
20260902095755 66 246 0.0 0.0 0.00 0.00 0.00 94 1012.5
20260902094756 66 246 0.0 0.0 0.00 0.00 0.00 94 1012.6
20260902094256 66 246 0.0 0.0 0.00 0.00 0.00 94 1012.7
20260902093756 66 246 0.0 0.0 0.00 0.00 0.00 94 1012.8
20260902092755 67 268 0.0 0.0 0.00 0.00 0.00 94 1012.8
20260902091756 67 268 0.0 0.0 0.00 0.00 0.00 94 1012.7
20260902091256 67 268 0.0 0.0 0.00 0.00 0.00 94 1012.4
20260902090756 67 268 0.0 0.0 0.00 0.00 0.00 94 1012.3
20260902090256 68 268 0.0 0.0 0.00 0.00 0.00 94 1012.3
20260902085756 68 268 0.0 0.0 0.00 0.00 0.00 94 1012.0
20260902085256 68 268 0.0 0.0 0.00 0.00 0.00 94 1012.1
20260902084756 68 268 0.0 0.0 0.00 0.00 0.00 94 1011.9
20260902084256 69 268 0.0 0.0 0.00 0.00 0.00 94 1012.0
20260902083756 69 268 0.0 0.0 0.00 0.00 0.00 94 1012.0
20260902083256 69 268 0.0 0.0 0.00 0.00 0.00 94 1012.0
20260902082756 69 268 0.0 0.0 0.00 0.00 0.00 94 1012.0
20260902082256 70 268 0.0 0.0 0.00 0.00 0.00 94 1012.0
20260902080256 71 269 0.0 0.0 0.00 0.00 0.00 94 1012.2
20260902075756 71 269 0.0 0.0 0.00 0.00 0.00 94 1012.2
20260902075256 71 269 0.0 0.0 0.00 0.00 0.00 94 1012.1
20260902074756 71 269 0.0 0.0 0.00 0.00 0.00 94 1012.0
20260902073256 71 271 0.0 0.0 0.00 0.00 0.00 94 1012.2
20260902072756 72 271 0.0 0.0 0.00 0.00 0.00 94 1012.3
20260902072256 72 236 0.0 0.0 0.00 0.00 0.00 94 1012.3
20260902071756 72 249 0.0 0.0 0.00 0.00 0.00 94 1012.3
20260902071256 72 284 0.0 0.0 0.00 0.00 0.00 94 1012.4
20260902070756 72 190 0.0 0.0 0.00 0.00 0.00 94 1012.4
20260902070255 72 273 0.0 0.0 0.00 0.00 0.00 94 1012.4
20260902065255 72 262 0.0 0.0 0.00 0.00 0.00 94 1012.3
20260902064756 72 207 0.0 0.0 0.00 0.00 0.00 94 1012.4
20260902062755 73 226 0.0 0.0 0.00 0.00 0.00 93 1012.0
20260902062255 73 221 0.0 0.0 0.00 0.00 0.00 94 1012.0
20260902061755 73 221 0.0 0.0 0.00 0.00 0.00 94 1011.9
20260902061255 73 221 0.0 0.0 0.00 0.00 0.00 94 1012.0
20260902060756 73 227 0.0 0.0 0.00 0.00 0.00 93 1011.9
20260902055756 73 220 0.0 0.0 0.00 0.00 0.00 93 1011.8
20260902055256 73 209 0.0 0.0 0.00 0.00 0.00 93 1011.9
20260902054756 73 235 0.0 0.0 0.00 0.00 0.00 93 1011.9
20260902054256 73 222 0.0 0.0 0.00 0.00 0.00 93 1011.8
20260902053756 73 209 0.0 0.0 0.00 0.00 0.00 93 1011.8
20260902053256 73 248 0.0 0.0 0.00 0.00 0.00 93 1011.8
20260902052756 73 204 0.0 0.0 0.00 0.00 0.00 93 1011.7
20260902052256 73 225 0.0 0.0 0.00 0.00 0.00 93 1011.6
20260902051756 73 215 0.0 0.0 0.00 0.00 0.00 93 1011.7
20260902051256 73 169 0.0 0.0 0.00 0.00 0.00 93 1011.6
20260902050756 73 267 0.0 0.0 0.00 0.00 0.00 93 1011.7
20260902050256 73 206 0.0 0.0 0.00 0.00 0.00 93 1011.7
20260902045756 73 221 0.0 0.0 0.00 0.00 0.00 93 1011.7
20260902044256 73 232 0.0 0.0 0.00 0.00 0.00 94 1011.7
20260902043756 73 225 0.0 0.0 0.00 0.00 0.00 93 1011.6
20260902043256 73 242 0.0 0.0 0.00 0.00 0.00 93 1011.6
20260902042756 73 157 0.0 0.0 0.00 0.00 0.00 94 1011.7
20260902041756 73 224 0.0 0.0 0.00 0.00 0.00 94 1011.8
20260902041256 73 180 0.0 0.0 0.00 0.00 0.00 94 1011.7
20260902040256 73 205 0.0 0.0 0.00 0.00 0.00 94 1011.8
20260902035756 73 205 0.0 0.0 0.00 0.00 0.00 93 1011.7
20260902035256 73 205 0.0 0.0 0.00 0.00 0.00 93 1011.6
20260902034756 73 189 0.0 0.0 0.00 0.00 0.00 93 1011.6
20260902034256 73 207 0.0 0.0 0.00 0.00 0.00 93 1011.7
20260902033256 72 200 0.0 0.0 0.00 0.00 0.00 93 1011.7
20260902032756 72 182 0.0 0.0 0.00 0.00 0.00 93 1011.7
20260902032256 72 189 0.0 0.0 0.00 0.00 0.00 93 1011.8
20260902031756 71 241 0.0 0.0 0.00 0.00 0.00 94 1011.8
20260902030756 71 223 0.0 0.0 0.00 0.00 0.00 94 1011.9
20260902030256 71 224 0.0 0.0 0.00 0.00 0.00 94 1011.9
20260902025756 71 171 0.0 0.0 0.00 0.00 0.00 93 1012.0
20260902025256 71 221 0.0 0.0 0.00 0.00 0.00 93 1011.8
20260902024756 71 221 0.0 0.0 0.00 0.00 0.00 93 1011.7
20260902024256 71 221 0.0 0.0 0.00 0.00 0.00 93 1011.8
20260902023756 71 221 0.0 0.0 0.00 0.00 0.00 93 1011.8
20260902023256 71 221 0.0 0.0 0.00 0.00 0.00 93 1011.8
20260902022756 71 221 0.0 0.0 0.00 0.00 0.00 92 1011.7
20260902022256 71 221 0.0 0.0 0.00 0.00 0.00 92 1011.7
20260902021756 72 221 0.0 0.0 0.00 0.00 0.00 92 1011.7
20260902021256 72 221 0.0 0.0 0.00 0.00 0.00 92 1011.7
20260902020756 72 221 0.0 0.0 0.00 0.00 0.00 92 1011.8
20260902015800 72 221 0.0 0.0 0.00 0.00 0.00 91 1011.8
20260902015300 73 221 0.0 0.0 0.00 0.00 0.00 91 1011.6
20260902014800 73 221 0.0 0.0 0.00 0.00 0.00 90 1011.6
20260902014300 73 221 0.0 0.0 0.00 0.00 0.00 90 1011.5
20260902013800 73 221 0.0 0.0 0.00 0.00 0.00 90 1011.5
20260902012800 74 221 0.0 0.0 0.00 0.00 0.00 90 1011.6
20260902012300 74 221 0.0 0.0 0.00 0.00 0.00 89 1011.6
20260902011800 74 221 0.0 0.0 0.00 0.00 0.00 89 1011.6
20260902011300 75 221 0.0 0.0 0.00 0.00 0.00 88 1011.8
20260902010300 75 221 0.0 0.0 0.00 0.00 0.00 88 1011.6
20260902005300 76 221 0.0 0.0 0.00 0.00 0.00 86 1011.5
20260902004300 77 221 0.0 0.0 0.00 0.00 0.00 85 1011.5
20260902003800 77 221 0.0 0.0 0.00 0.00 0.00 84 1011.6
20260902003300 77 221 0.0 0.0 0.00 0.00 0.00 84 1011.5
20260902002800 78 221 0.0 0.0 0.00 0.00 0.00 84 1011.6
20260902002300 78 221 0.0 0.0 0.00 0.00 0.00 83 1011.5
20260902001800 79 221 0.0 0.0 0.00 0.00 0.00 82 1011.6
20260902001300 79 221 0.0 0.0 0.00 0.00 0.00 82 1011.6
20260902000800 79 221 0.0 0.0 0.00 0.00 0.00 81 1011.6
20260902000300 80 221 0.0 0.0 0.00 0.00 0.00 80 1011.6
20260901235800 80 221 0.0 0.0 0.00 0.00 0.00 79 1011.6
20260901235300 81 221 0.0 0.0 0.00 0.00 0.00 79 1011.4
20260901234800 81 221 0.0 0.0 0.00 0.00 0.00 78 1011.3
20260901234300 81 221 0.0 0.0 0.00 0.00 0.00 77 1011.4
20260901233800 82 221 0.0 0.0 0.00 0.00 0.00 76 1011.4
20260901233300 82 221 0.0 0.0 0.00 0.00 0.00 75 1011.3